HB9BTL-13 Weather Reports


time (UTC)temp
C
wind
direction
speed
KPH
gust
KPH
rain 1hr
cm
rain 24hr
cm
rain mn
cm
humidity
%
barometer
mb
20260502231357 17 0.0 0.0 0.00 0.00 0.00 62 1017.3
20260502225852 17 0.0 0.0 0.00 0.00 0.00 65 1017.3
20260502224346 17 0.0 0.0 0.00 0.00 0.00 67 1017.3
20260502222841 17 0.0 0.0 0.00 0.00 0.00 68 1017.4
20260502221336 17 0.0 0.0 0.00 0.00 0.00 71 1017.3
20260502215830 18 0.0 0.0 0.00 0.00 0.00 70 1017.3
20260502214325 18 0.0 0.0 0.00 0.00 0.00 68 1017.2
20260502212819 17 0.0 0.0 0.00 0.00 0.00 70 1017.2
20260502211315 18 0.0 0.0 0.00 0.00 0.00 68 1017.1
20260502205809 18 0.0 0.0 0.00 0.00 0.00 62 1017.1
20260502204304 18 0.0 0.0 0.00 0.00 0.00 63 1017.2
20260502202758 18 0.0 0.0 0.00 0.00 0.00 64 1017.1
20260502201253 19 0.0 0.0 0.00 0.00 0.00 62 1017.1
20260502195748 20 0.0 0.0 0.00 0.00 0.00 60 1017.1
20260502194242 20 0.0 0.0 0.00 0.00 0.00 59 1017.1
20260502192737 20 0.0 0.0 0.00 0.00 0.00 55 1016.9
20260502191231 19 0.0 0.0 0.00 0.00 0.00 57 1016.9
20260502185726 20 0.0 0.0 0.00 0.00 0.00 55 1016.7
20260502184220 20 0.0 0.0 0.00 0.00 0.00 54 1016.5
20260502182715 21 0.0 0.0 0.00 0.00 0.00 53 1016.6
20260502181209 21 0.0 0.0 0.00 0.00 0.00 54 1016.5
20260502164138 24 0.0 0.0 0.00 0.00 0.00 39 1016.6
20260502162632 24 0.0 0.0 0.00 0.00 0.00 39 1016.7
20260502161127 25 0.0 0.0 0.00 0.00 0.00 36 1017.0
20260502151105 25 0.0 0.0 0.00 0.00 0.00 37 1017.6
20260502122506 23 0.0 0.0 0.00 0.00 0.00 49 1020.0
20260502121000 22 0.0 0.0 0.00 0.00 0.00 50 1020.2
20260502115455 23 0.0 0.0 0.00 0.00 0.00 47 1020.4
20260502113950 22 0.0 0.0 0.00 0.00 0.00 52 1020.7
20260502112444 21 0.0 0.0 0.00 0.00 0.00 50 1021.0
20260502110939 21 0.0 0.0 0.00 0.00 0.00 55 1021.2
20260502105433 21 0.0 0.0 0.00 0.00 0.00 56 1021.5
20260502103928 21 0.0 0.0 0.00 0.00 0.00 56 1021.6
20260502102422 20 0.0 0.0 0.00 0.00 0.00 57 1021.8
20260502100917 20 0.0 0.0 0.00 0.00 0.00 58 1022.1
20260502090856 18 0.0 0.0 0.00 0.00 0.00 59 1023.1
20260502070813 13 0.0 0.0 0.00 0.00 0.00 66 1023.8
20260502065308 13 0.0 0.0 0.00 0.00 0.00 68 1023.9
20260502063802 13 0.0 0.0 0.00 0.00 0.00 69 1023.9
20260502062257 12 0.0 0.0 0.00 0.00 0.00 70 1023.9
20260502060751 12 0.0 0.0 0.00 0.00 0.00 69 1024.0
20260502055246 11 0.0 0.0 0.00 0.00 0.00 74 1024.0
20260502053740 11 0.0 0.0 0.00 0.00 0.00 75 1024.0
20260502052235 11 0.0 0.0 0.00 0.00 0.00 78 1023.9
20260502050730 11 0.0 0.0 0.00 0.00 0.00 78 1023.9
20260502045224 11 0.0 0.0 0.00 0.00 0.00 78 1023.8
20260502043719 11 0.0 0.0 0.00 0.00 0.00 78 1023.7
20260502042213 10 0.0 0.0 0.00 0.00 0.00 78 1023.7
20260502040708 11 0.0 0.0 0.00 0.00 0.00 74 1023.7
20260502035202 11 0.0 0.0 0.00 0.00 0.00 72 1023.7
20260502033657 10 0.0 0.0 0.00 0.00 0.00 78 1023.7
20260502032152 11 0.0 0.0 0.00 0.00 0.00 76 1023.7
20260502030647 11 0.0 0.0 0.00 0.00 0.00 72 1023.7
20260502025141 11 0.0 0.0 0.00 0.00 0.00 74 1023.6
20260502023636 11 0.0 0.0 0.00 0.00 0.00 74 1023.6
20260502022131 12 0.0 0.0 0.00 0.00 0.00 71 1023.6
20260502020625 11 0.0 0.0 0.00 0.00 0.00 71 1023.6
20260502015120 11 0.0 0.0 0.00 0.00 0.00 69 1023.6
20260502013614 11 0.0 0.0 0.00 0.00 0.00 72 1023.6
20260502012109 12 0.0 0.0 0.00 0.00 0.00 69 1023.6
20260502010603 12 0.0 0.0 0.00 0.00 0.00 65 1023.4
20260502005058 12 0.0 0.0 0.00 0.00 0.00 66 1023.5
20260502003553 12 0.0 0.0 0.00 0.00 0.00 66 1023.5
20260502002047 12 0.0 0.0 0.00 0.00 0.00 66 1023.5
20260502000542 12 0.0 0.0 0.00 0.00 0.00 66 1023.7
20260501235036 12 0.0 0.0 0.00 0.00 0.00 62 1023.7
20260501233531 13 0.0 0.0 0.00 0.00 0.00 59 1023.6